Location: *
(60.1759°S, 155.0663°W)
Time: 04:09:01
(UTC+00:00)

APEX - Pass Details

Date: 17 September 2019
Orbit: 334 x 1126 km, 69.9° (Epoch: 18 October)

Event Time Altitude Azimuth Distance (km) Brightness Sun altitude
Rises 15:01:38 0° 223° (SW) 3,235 7.0 -10.9°
Reaches altitude 10° 15:03:51 10° 226° (SW) 2,419 6.3 -10.7°
Maximum altitude 15:09:27 62° 304° (NW) 1,063 4.5 -10.0°
Drops below altitude 10° 15:16:09 10° 22° (NNE) 2,881 7.1 -9.2°
Sets 15:18:59 0° 25° (NNE) 3,897 7.8 -8.8°
